Content
SEND FEEDBACK

Daily
Averages
Monthly
Summary
Canada

PRINCE RUPERT, BRITISH COLUMBIA


Home > North America > Canada > British Columbia
Elevation: 111 feet     Latitude: 54 17N     Longitude: 130 27W

WEATHER
 
SELECT A DAY
Number of Records: 351,250;   Date Range: 1/1/95 - 9/15/14
 
SHARE

PRINT THIS DATA

[ ← Previous Day ]
WEATHER ALMANAC - MAY 9, 2013
[ Next Day → ]
[ °C ]   °F
Weather ElementAverageHighLow
Temperature45.9 °F51.8 °F (3:57 pm)42.8 °F (4:00 am)
Dewpoint44.6 °F46.4 °F (3:00 pm)42.8 °F (1:33 am)
Humidity95.4 %100 % (1:38 am)82 % (3:57 pm)
Barometer30.23 in30.27 in (12:00 pm)30.19 in (1:33 am)
Wind Speed3.5 mph9.2 mph (5:53 pm)
Weather ElementAverage
Visibility4.1 mi
Wind DirectionSSE (147.1 °)

Weather ElementTotal
Precipitation---
Heating Degree Days17.7 (Base 65)
Averaged from 52 records on May 9, 2013
WEATHER CONDITIONS BREAKOUT
WIND DIRECTION BREAKOUT
WEATHER BY HOUR - MAY 9, 2013
[ °C ]   °F
Local TimeTemperatureDewpointHumidityBarometerVisibilityWind DirectionWind SpeedGust SpeedPrecipitationEventsConditions
1:33 AM44.6 °F42.8 °F93 %30.19 in9.0 miNW (320°)3.5 mphMostly Cloudy
1:35 AM44.6 °F42.8 °F93 %30.19 in2.2 miNW (320°)4.6 mphMostly Cloudy
1:36 AM44.6 °F42.8 °F93 %30.19 in1.2 miNNW (330°)4.6 mphMostly Cloudy
1:38 AM44.6 °F44.6 °F100 %30.19 in0.5 miNNW (330°)5.8 mphFog-RainLight Rain
1:39 AM44.6 °F44.6 °F100 %30.19 in0.4 miNNW (330°)4.6 mphFog-RainLight Rain
1:47 AM44.6 °F44.6 °F100 %30.19 in0.1 miNNW (330°)4.6 mphFog-RainLight Rain
1:50 AM44.6 °F44.6 °F100 %30.19 in0.1 miNNW (330°)3.5 mphFog-RainLight Rain
2:00 AM44.6 °F44.6 °F100 %30.20 in0.1 miVariable2.3 mphFog-RainLight Rain
2:20 AM44.6 °F44.6 °F100 %30.20 in0.1 miVariable2.3 mphFog-RainLight Rain
3:00 AM44.6 °F44.6 °F100 %30.20 in0.1 miNNW (330°)3.5 mphFog-RainLight Rain
4:00 AM42.8 °F42.8 °F100 %30.21 in0.1 miWNW (300°)3.5 mphFog-RainLight Rain
5:00 AM42.8 °F42.8 °F100 %30.21 in0.1 miNorth (360°)3.5 mphFog-RainLight Rain
5:56 AM42.8 °F42.8 °F100 %30.21 in0.1 miVariable2.3 mphFogFog
5:59 AM42.8 °F42.8 °F100 %30.22 in0.1 miVariable2.3 mphFog-RainLight Rain
6:00 AM42.8 °F42.8 °F100 %30.22 in0.1 miCalmFog-RainLight Rain
6:46 AM42.8 °F42.8 °F100 %30.22 in0.1 miVariable3.5 mphFogFog
6:47 AM42.8 °F42.8 °F100 %30.22 in0.1 miVariable4.6 mphFog-RainLight Rain
7:00 AM42.8 °F42.8 °F100 %30.22 in0.1 miVariable2.3 mphFog-RainLight Rain
7:46 AM44.6 °F44.6 °F100 %30.23 in0.1 miVariable2.3 mphFogFog
8:00 AM44.6 °F44.6 °F100 %30.24 in0.1 miVariable2.3 mphFogFog
8:03 AM44.6 °F44.6 °F100 %30.24 in0.1 miSW (230°)3.5 mphFog-RainLight Rain
8:51 AM44.6 °F44.6 °F100 %30.25 in0.4 miVariable2.3 mphFogFog
9:00 AM42.8 °F42.8 °F100 %30.25 in0.4 miCalmFogFog
9:07 AM44.6 °F44.6 °F100 %30.25 in0.5 miCalmFogFog
9:27 AM44.6 °F44.6 °F100 %30.24 in2.0 miVariable2.3 mphOvercast
9:30 AM44.6 °F44.6 °F100 %30.24 in3.0 miVariable2.3 mphOvercast
9:46 AM44.6 °F44.6 °F100 %30.25 in6.0 miCalmOvercast
9:50 AM44.6 °F44.6 °F100 %30.25 in4.0 miCalmOvercast
10:00 AM44.6 °F44.6 °F100 %30.25 in5.0 miCalmOvercast
10:02 AM44.6 °F44.6 °F100 %30.25 in7.0 miVariable2.3 mphOvercast
10:03 AM44.6 °F44.6 °F100 %30.25 in5.0 miVariable2.3 mphOvercast
10:09 AM44.6 °F44.6 °F100 %30.25 in2.5 miWSW (240°)3.5 mphOvercast
10:43 AM44.6 °F44.6 °F100 %30.25 in3.0 miVariable2.3 mphOvercast
10:52 AM46.4 °F44.6 °F93 %30.25 in6.0 miCalmOvercast
11:00 AM46.4 °F44.6 °F93 %30.25 in9.0 miVariable4.6 mphOvercast
12:00 PM46.4 °F44.6 °F93 %30.27 in6.0 miWSW (250°)4.6 mphOvercast
12:05 PM46.4 °F44.6 °F93 %30.27 in5.0 miWest (260°)3.5 mphOvercast
12:15 PM46.4 °F44.6 °F93 %30.27 in6.0 miWest (270°)4.6 mphOvercast
1:00 PM48.2 °F44.6 °F87 %30.27 in9.0 miWest (280°)4.6 mphOvercast
2:00 PM48.2 °F44.6 °F87 %30.27 in9.0 miWNW (300°)6.9 mphOvercast
3:00 PM50.0 °F46.4 °F87 %30.27 in9.0 miWest (270°)4.6 mphOvercast
3:06 PM50.0 °F46.4 °F87 %30.27 in9.0 miWest (260°)5.8 mphOvercast
3:57 PM51.8 °F46.4 °F82 %30.26 in9.0 miWest (270°)6.9 mphScattered Clouds
4:00 PM51.8 °F46.4 °F82 %30.26 in9.0 miWNW (290°)6.9 mphScattered Clouds
5:00 PM51.8 °F46.4 °F82 %30.24 in9.0 miWNW (290°)6.9 mphClear
5:53 PM51.8 °F46.4 °F82 %30.23 in9.0 miWNW (290°)9.2 mphMostly Cloudy
6:00 PM51.8 °F46.4 °F82 %30.23 in9.0 miWest (280°)9.2 mphMostly Cloudy
7:00 PM50.0 °F46.4 °F87 %30.23 in9.0 miWNW (290°)4.6 mphOvercast
8:00 PM48.2 °F46.4 °F93 %30.23 in9.0 miVariable2.3 mphOvercast
9:00 PM48.2 °F46.4 °F93 %30.23 in9.0 miWNW (290°)3.5 mphOvercast
10:00 PM48.2 °F46.4 °F93 %30.23 in9.0 miVariable2.3 mphOvercast
11:00 PM48.2 °F46.4 °F93 %30.24 in9.0 miNorth (10°)3.5 mphOvercast
Hourly data recorded from CYPR, located miles away from Prince Rupert, British Columbia







STORIES FROM OUR PARTNERS